CW0133 Weather Reports


Display with metric or nautical units.
time (UTC)temp
F
wind
direction
speed
MPH
gust
MPH
rain 1hr
in
rain 24hr
in
rain mn
in
humidity
%
barometer
mb
20260905185504 102 175 5.0 12.0 0.00 0.00 0.00 36 1013.8
20260905185003 102 183 5.0 12.0 0.00 0.00 0.00 35 1014.0
20260905184504 101 185 5.0 13.0 0.00 0.00 0.00 40 1014.0
20260905184003 100 168 7.0 16.0 0.00 0.00 0.00 39 1014.1
20260905183504 100 165 6.0 16.0 0.00 0.00 0.00 38 1014.2
20260905183004 100 188 5.0 12.0 0.00 0.00 0.00 39 1014.2
20260905182504 100 189 6.0 14.0 0.00 0.00 0.00 39 1014.3
20260905182024 100 162 6.0 16.0 0.00 0.00 0.00 41 1014.5
20260905181504 99 141 6.0 16.0 0.00 0.00 0.00 40 1014.5
20260905181004 99 139 6.0 12.0 0.00 0.00 0.00 43 1014.6
20260905180504 98 171 5.0 12.0 0.00 0.00 0.00 45 1014.7
20260905180003 98 176 5.0 12.0 0.00 0.00 0.00 46 1014.7
20260905175504 97 157 6.0 12.0 0.00 0.00 0.00 49 1014.8
20260905175003 96 166 5.0 12.0 0.00 0.00 0.00 48 1015.0
20260905174524 96 186 2.0 11.0 0.00 0.00 0.00 50 1015.1
20260905174004 96 182 4.0 12.0 0.00 0.00 0.00 49 1015.2
20260905173503 95 177 5.0 12.0 0.00 0.00 0.00 51 1015.3
20260905173004 95 178 5.0 12.0 0.00 0.00 0.00 51 1015.3
20260905172525 94 169 5.0 12.0 0.00 0.00 0.00 51 1015.4
20260905172004 94 158 5.0 11.0 0.00 0.00 0.00 51 1015.6
20260905171503 93 156 6.0 13.0 0.00 0.00 0.00 53 1015.7
20260905171004 93 147 7.0 13.0 0.00 0.00 0.00 52 1015.7
20260905170503 93 152 5.0 11.0 0.00 0.00 0.00 56 1015.6
20260905170003 92 191 4.0 10.0 0.00 0.00 0.00 58 1015.8
20260905165504 91 191 5.0 11.0 0.00 0.00 0.00 59 1015.7
20260905165003 91 203 4.0 11.0 0.00 0.00 0.00 59 1015.7
20260905164524 91 186 4.0 8.0 0.00 0.00 0.00 61 1015.7
20260905164003 90 171 6.0 12.0 0.00 0.00 0.00 61 1015.7
20260905163504 90 169 6.0 12.0 0.00 0.00 0.00 62 1015.8
20260905163024 90 146 6.0 17.0 0.00 0.00 0.00 63 1015.7
20260905162503 90 140 6.0 17.0 0.00 0.00 0.00 63 1015.8
20260905162003 89 165 5.0 13.0 0.00 0.00 0.00 65 1015.8
20260905161524 88 182 5.0 11.0 0.00 0.00 0.00 66 1015.8
20260905161024 88 184 7.0 13.0 0.00 0.00 0.00 65 1015.8
20260905160503 88 183 7.0 13.0 0.00 0.00 0.00 68 1015.7
20260905160003 87 174 6.0 13.0 0.00 0.00 0.00 69 1015.8
20260905155503 87 160 6.0 12.0 0.00 0.00 0.00 69 1015.7
20260905155003 86 156 6.0 11.0 0.00 0.00 0.00 71 1015.7
20260905154524 86 155 6.0 12.0 0.00 0.00 0.00 72 1015.7
20260905154003 86 157 7.0 12.0 0.00 0.00 0.00 73 1015.7
20260905153503 85 175 5.0 12.0 0.00 0.00 0.00 76 1015.7
20260905153003 84 195 2.0 8.0 0.00 0.00 0.00 80 1015.7
20260905152503 84 180 4.0 10.0 0.00 0.00 0.00 81 1015.7
20260905152003 83 178 5.0 10.0 0.00 0.00 0.00 81 1015.7
20260905151503 83 192 4.0 8.0 0.00 0.00 0.00 82 1015.7
20260905151024 82 191 4.0 8.0 0.00 0.00 0.00 84 1015.8
20260905150503 82 179 5.0 10.0 0.00 0.00 0.00 85 1015.8
20260905150003 82 179 5.0 10.0 0.00 0.00 0.00 86 1015.9
20260905145503 81 158 5.0 8.0 0.00 0.00 0.00 87 1015.9
20260905145024 81 146 4.0 8.0 0.00 0.00 0.00 88 1015.8
20260905144503 81 162 4.0 8.0 0.00 0.00 0.00 90 1015.7
20260905144003 80 176 4.0 8.0 0.00 0.00 0.00 91 1015.6
20260905143503 80 203 4.0 7.0 0.00 0.00 0.00 92 1015.7
20260905143003 80 208 4.0 7.0 0.00 0.00 0.00 92 1015.7
20260905142503 80 179 4.0 7.0 0.00 0.00 0.00 93 1015.6
20260905142003 80 164 4.0 7.0 0.00 0.00 0.00 93 1015.6
20260905141503 79 150 2.0 5.0 0.00 0.00 0.00 93 1015.6
20260905141003 79 141 2.0 5.0 0.00 0.00 0.00 93 1015.6
20260905140503 79 145 4.0 5.0 0.00 0.00 0.00 93 1015.6
20260905140003 78 152 2.0 5.0 0.00 0.00 0.00 94 1015.5
20260905135524 78 168 1.0 5.0 0.00 0.00 0.00 94 1015.5
20260905135024 77 170 1.0 4.0 0.00 0.00 0.00 93 1015.5
20260905134524 77 170 1.0 2.0 0.00 0.00 0.00 93 1015.4
20260905134004 76 170 0.0 2.0 0.00 0.00 0.00 93 1015.4
20260905133503 76 170 0.0 2.0 0.00 0.00 0.00 93 1015.4
20260905133003 75 170 0.0 2.0 0.00 0.00 0.00 92 1015.4
20260905132503 75 0 0.0 0.0 0.00 0.00 0.00 92 1015.4
20260905132003 75 0 0.0 0.0 0.00 0.00 0.00 92 1015.3
20260905131503 74 0 0.0 0.0 0.00 0.00 0.00 91 1015.1
20260905131003 74 0 0.0 0.0 0.00 0.00 0.00 91 1015.0
20260905130503 74 170 0.0 1.0 0.00 0.00 0.00 91 1015.0
20260905130003 74 170 0.0 1.0 0.00 0.00 0.00 91 1015.0
20260905125504 74 170 0.0 1.0 0.00 0.00 0.00 90 1015.0
20260905125004 73 0 0.0 0.0 0.00 0.00 0.00 89 1014.9
20260905124504 73 0 0.0 0.0 0.00 0.00 0.00 89 1014.8
20260905124025 73 170 0.0 1.0 0.00 0.00 0.00 89 1014.8
20260905123504 74 170 0.0 1.0 0.00 0.00 0.00 89 1014.8
20260905123004 74 170 0.0 1.0 0.00 0.00 0.00 89 1014.9
20260905122504 74 170 0.0 1.0 0.00 0.00 0.00 89 1014.9
20260905122004 74 170 0.0 1.0 0.00 0.00 0.00 89 1014.8
20260905121525 74 170 1.0 1.0 0.00 0.00 0.00 88 1014.9
20260905121025 74 170 1.0 1.0 0.00 0.00 0.00 88 1014.8
20260905120504 74 170 0.0 1.0 0.00 0.00 0.00 89 1014.7
20260905120004 74 0 0.0 0.0 0.00 0.00 0.00 89 1014.6
20260905115504 74 0 0.0 0.0 0.00 0.00 0.00 88 1014.5
20260905115004 74 0 0.0 0.0 0.00 0.00 0.00 88 1014.7
20260905114504 74 170 0.0 1.0 0.00 0.00 0.00 88 1014.6
20260905114004 75 170 0.0 1.0 0.00 0.00 0.00 88 1014.5
20260905113504 75 0 0.0 0.0 0.00 0.00 0.00 88 1014.5
20260905113004 75 0 0.0 0.0 0.00 0.00 0.00 88 1014.4
20260905112504 75 0 0.0 0.0 0.00 0.00 0.00 88 1014.4
20260905112004 75 0 0.0 0.0 0.00 0.00 0.00 88 1014.4
20260905111525 75 0 0.0 0.0 0.00 0.00 0.00 88 1014.3
20260905111004 76 0 0.0 0.0 0.00 0.00 0.00 88 1014.2
20260905110504 76 0 0.0 0.0 0.00 0.00 0.00 88 1014.2
20260905110004 76 0 0.0 0.0 0.00 0.00 0.00 88 1014.2
20260905105504 76 170 0.0 1.0 0.00 0.00 0.00 88 1014.2
20260905105004 76 170 0.0 1.0 0.00 0.00 0.00 88 1014.2
20260905104525 76 0 0.0 0.0 0.00 0.00 0.00 88 1014.1
20260905104004 76 170 0.0 1.0 0.00 0.00 0.00 88 1014.0
20260905103525 76 170 0.0 1.0 0.00 0.00 0.00 88 1014.0
20260905103004 76 170 0.0 1.0 0.00 0.00 0.00 88 1014.1
20260905102504 76 170 0.0 1.0 0.00 0.00 0.00 88 1014.0
20260905102004 77 170 0.0 1.0 0.00 0.00 0.00 88 1014.0
20260905101504 77 170 0.0 1.0 0.00 0.00 0.00 87 1014.0
20260905101004 77 170 1.0 2.0 0.00 0.00 0.00 87 1014.0
20260905100504 77 170 0.0 2.0 0.00 0.00 0.00 87 1014.0
20260905100004 77 170 1.0 2.0 0.00 0.00 0.00 87 1014.0
20260905095504 77 170 1.0 2.0 0.00 0.00 0.00 87 1013.8
20260905095004 77 170 0.0 2.0 0.00 0.00 0.00 87 1013.9
20260905094525 78 0 0.0 0.0 0.00 0.00 0.00 87 1013.8
20260905094003 78 170 0.0 1.0 0.00 0.00 0.00 87 1013.7
20260905093525 78 170 0.0 1.0 0.00 0.00 0.00 87 1013.6
20260905093025 78 170 0.0 1.0 0.00 0.00 0.00 87 1013.7
20260905092504 78 170 0.0 2.0 0.00 0.00 0.00 87 1013.7
20260905092025 78 170 1.0 2.0 0.00 0.00 0.00 87 1013.8
20260905091504 78 170 1.0 4.0 0.00 0.00 0.00 87 1014.0
20260905091025 78 170 1.0 4.0 0.00 0.00 0.00 87 1013.9
20260905090504 78 170 1.0 4.0 0.00 0.00 0.00 87 1013.9
20260905090004 78 170 1.0 4.0 0.00 0.00 0.00 87 1013.9
20260905085504 78 170 1.0 4.0 0.00 0.00 0.00 87 1013.8
20260905085004 78 170 1.0 4.0 0.00 0.00 0.00 87 1013.8
20260905084504 78 170 2.0 4.0 0.00 0.00 0.00 87 1013.9
20260905084004 78 170 2.0 4.0 0.00 0.00 0.00 87 1014.0
20260905083504 79 170 2.0 5.0 0.00 0.00 0.00 87 1014.0
20260905083003 79 170 2.0 5.0 0.00 0.00 0.00 87 1014.1
20260905082503 79 170 2.0 4.0 0.00 0.00 0.00 86 1014.0
20260905082025 79 170 2.0 4.0 0.00 0.00 0.00 86 1014.1
20260905081524 79 168 2.0 5.0 0.00 0.00 0.00 86 1014.1
20260905081004 79 166 2.0 5.0 0.00 0.00 0.00 86 1014.2
20260905080525 79 165 2.0 4.0 0.00 0.00 0.00 86 1014.2
20260905080025 79 165 2.0 5.0 0.00 0.00 0.00 86 1014.3
20260905075503 79 165 2.0 5.0 0.00 0.00 0.00 86 1014.3
20260905075003 79 164 2.0 5.0 0.00 0.00 0.00 85 1014.5
20260905074504 79 158 2.0 6.0 0.00 0.00 0.00 85 1014.4
20260905074004 79 153 2.0 6.0 0.00 0.00 0.00 85 1014.4
20260905073525 79 154 2.0 6.0 0.00 0.00 0.00 84 1014.4
20260905073024 79 164 2.0 6.0 0.00 0.00 0.00 84 1014.5
20260905072504 80 171 4.0 6.0 0.00 0.00 0.00 84 1014.4
20260905072004 80 169 2.0 5.0 0.00 0.00 0.00 84 1014.6
20260905071504 80 170 2.0 5.0 0.00 0.00 0.00 84 1014.5
20260905071004 80 172 2.0 5.0 0.00 0.00 0.00 84 1014.6
20260905070525 80 174 2.0 5.0 0.00 0.00 0.00 83 1014.6
20260905070004 80 175 4.0 5.0 0.00 0.00 0.00 83 1014.5
20260905065504 80 174 4.0 5.0 0.00 0.00 0.00 83 1014.6
20260905065004 80 171 4.0 6.0 0.00 0.00 0.00 83 1014.6
20260905064503 80 161 4.0 7.0 0.00 0.00 0.00 83 1014.6
20260905064004 80 150 2.0 7.0 0.00 0.00 0.00 82 1014.6
20260905063524 80 152 2.0 7.0 0.00 0.00 0.00 82 1014.7
20260905063003 80 155 2.0 7.0 0.00 0.00 0.00 82 1014.7
20260905062503 80 148 2.0 5.0 0.00 0.00 0.00 81 1014.7
20260905062003 80 149 2.0 6.0 0.00 0.00 0.00 81 1014.8
20260905061503 80 159 2.0 6.0 0.00 0.00 0.00 81 1014.7
20260905061003 81 146 2.0 5.0 0.00 0.00 0.00 81 1014.8
20260905060503 81 132 2.0 6.0 0.00 0.00 0.00 80 1014.6
20260905060025 81 136 2.0 6.0 0.00 0.00 0.00 80 1014.6
20260905055503 81 141 4.0 6.0 0.00 0.00 0.00 80 1014.7
20260905055004 81 134 4.0 7.0 0.00 0.00 0.00 80 1014.7
20260905054503 81 138 4.0 7.0 0.00 0.00 0.00 80 1014.8
20260905054024 81 148 4.0 8.0 0.00 0.00 0.00 80 1014.9
20260905053503 81 147 4.0 8.0 0.00 0.00 0.00 79 1014.6
20260905053003 81 148 2.0 8.0 0.00 0.00 0.00 79 1014.8
20260905052525 81 147 4.0 6.0 0.00 0.00 0.00 79 1014.8
20260905052003 81 135 4.0 7.0 0.00 0.00 0.00 79 1014.9
20260905051503 81 143 4.0 8.0 0.00 0.00 0.00 79 1014.9
20260905051025 81 154 5.0 10.0 0.00 0.00 0.00 79 1014.9
20260905050503 81 156 5.0 10.0 0.00 0.00 0.00 79 1014.9
20260905050004 82 152 4.0 8.0 0.00 0.00 0.00 78 1014.8
20260905045503 82 142 4.0 7.0 0.00 0.00 0.00 78 1014.8
20260905045004 82 133 5.0 10.0 0.00 0.00 0.00 78 1014.9
20260905044503 82 135 4.0 10.0 0.00 0.00 0.00 78 1014.8
20260905044003 82 142 4.0 10.0 0.00 0.00 0.00 77 1014.8
20260905043524 82 135 4.0 10.0 0.00 0.00 0.00 77 1014.8
20260905043024 82 125 4.0 10.0 0.00 0.00 0.00 77 1014.8
20260905042503 82 125 4.0 8.0 0.00 0.00 0.00 76 1014.7
20260905042003 82 125 4.0 8.0 0.00 0.00 0.00 76 1014.7
20260905041503 82 134 4.0 7.0 0.00 0.00 0.00 76 1014.7
20260905041003 82 139 4.0 7.0 0.00 0.00 0.00 75 1014.8
20260905040503 82 123 4.0 10.0 0.00 0.00 0.00 75 1014.8
20260905040003 82 113 4.0 10.0 0.00 0.00 0.00 75 1014.8
20260905035503 83 132 4.0 6.0 0.00 0.00 0.00 74 1014.9
20260905035003 83 137 2.0 6.0 0.00 0.00 0.00 74 1014.8
20260905034503 83 120 2.0 6.0 0.00 0.00 0.00 74 1014.8
20260905034003 83 118 2.0 6.0 0.00 0.00 0.00 73 1014.7
20260905033503 83 117 4.0 8.0 0.00 0.00 0.00 73 1014.6
20260905033024 83 118 4.0 8.0 0.00 0.00 0.00 73 1014.6
20260905032503 83 121 4.0 8.0 0.00 0.00 0.00 73 1014.6
20260905032003 83 123 4.0 7.0 0.00 0.00 0.00 72 1014.6
20260905031524 83 119 4.0 8.0 0.00 0.00 0.00 72 1014.6
20260905031004 83 119 4.0 10.0 0.00 0.00 0.00 72 1014.5
20260905030503 83 122 4.0 10.0 0.00 0.00 0.00 72 1014.4
20260905030003 83 112 4.0 10.0 0.00 0.00 0.00 71 1014.4
20260905025503 83 109 4.0 10.0 0.00 0.00 0.00 71 1014.3
20260905025003 83 114 5.0 10.0 0.00 0.00 0.00 70 1014.2
20260905024503 83 109 5.0 11.0 0.00 0.00 0.00 70 1014.2
20260905024003 84 104 4.0 11.0 0.00 0.00 0.00 69 1014.2
20260905023524 84 102 2.0 6.0 0.00 0.00 0.00 68 1014.2
20260905023024 84 106 2.0 5.0 0.00 0.00 0.00 68 1014.1
20260905022503 84 106 1.0 4.0 0.00 0.00 0.00 67 1014.1
20260905022024 84 106 1.0 4.0 0.00 0.00 0.00 67 1014.1
20260905021503 85 106 1.0 4.0 0.00 0.00 0.00 66 1013.8
20260905021003 85 106 1.0 4.0 0.00 0.00 0.00 66 1013.8
20260905020503 85 106 1.0 4.0 0.00 0.00 0.00 66 1013.7
20260905020003 85 104 1.0 5.0 0.00 0.00 0.00 66 1013.6
20260905015503 85 100 1.0 5.0 0.00 0.00 0.00 66 1013.7
20260905015024 86 101 1.0 5.0 0.00 0.00 0.00 65 1013.7
20260905014503 86 107 1.0 5.0 0.00 0.00 0.00 64 1013.6
20260905014003 86 114 1.0 5.0 0.00 0.00 0.00 64 1013.6
20260905013524 86 117 2.0 5.0 0.00 0.00 0.00 63 1013.6
20260905013003 86 117 2.0 5.0 0.00 0.00 0.00 63 1013.6
20260905012503 87 116 2.0 6.0 0.00 0.00 0.00 63 1013.5
20260905012003 87 114 4.0 6.0 0.00 0.00 0.00 62 1013.6
20260905011503 87 112 4.0 8.0 0.00 0.00 0.00 62 1013.4
20260905011003 87 116 4.0 8.0 0.00 0.00 0.00 62 1013.4
20260905010503 88 121 4.0 12.0 0.00 0.00 0.00 62 1013.4
20260905010003 88 119 5.0 12.0 0.00 0.00 0.00 62 1013.3
20260905005503 88 117 5.0 11.0 0.00 0.00 0.00 61 1013.3
20260905005025 88 123 5.0 11.0 0.00 0.00 0.00 61 1013.4
20260905004504 89 118 6.0 13.0 0.00 0.00 0.00 60 1013.2
20260905004004 89 118 6.0 13.0 0.00 0.00 0.00 60 1013.2
20260905003504 90 127 6.0 13.0 0.00 0.00 0.00 60 1013.1
20260905003004 90 120 7.0 13.0 0.00 0.00 0.00 60 1013.1
20260905002504 90 116 6.0 13.0 0.00 0.00 0.00 59 1013.1
20260905002004 90 118 7.0 13.0 0.00 0.00 0.00 58 1013.0
20260905001505 91 118 8.0 14.0 0.00 0.00 0.00 58 1012.9
20260905001004 91 117 8.0 14.0 0.00 0.00 0.00 57 1012.8
20260905000504 91 118 8.0 16.0 0.00 0.00 0.00 57 1012.8
20260905000004 92 126 8.0 16.0 0.00 0.00 0.00 56 1012.7
20260904235504 92 124 8.0 18.0 0.00 0.00 0.00 55 1012.7
20260904235004 92 119 8.0 18.0 0.00 0.00 0.00 54 1012.7
20260904234504 93 123 7.0 16.0 0.00 0.00 0.00 54 1012.6
20260904234025 93 138 7.0 14.0 0.00 0.00 0.00 52 1012.6
20260904233504 94 135 5.0 12.0 0.00 0.00 0.00 50 1012.5
20260904233004 94 122 6.0 14.0 0.00 0.00 0.00 48 1012.4
20260904232504 94 136 6.0 14.0 0.00 0.00 0.00 46 1012.6
20260904232004 95 151 5.0 11.0 0.00 0.00 0.00 45 1012.5
20260904231504 95 132 5.0 13.0 0.00 0.00 0.00 43 1012.5
20260904231004 95 115 6.0 13.0 0.00 0.00 0.00 43 1012.6
20260904230504 96 133 6.0 13.0 0.00 0.00 0.00 42 1012.7
20260904230004 96 164 5.0 11.0 0.00 0.00 0.00 42 1012.8
20260904225504 96 167 5.0 12.0 0.00 0.00 0.00 41 1012.8
20260904225004 96 177 5.0 12.0 0.00 0.00 0.00 40 1012.7
20260904224504 96 180 5.0 8.0 0.00 0.00 0.00 40 1012.8
20260904224004 96 170 5.0 11.0 0.00 0.00 0.00 41 1012.9
20260904223525 96 177 6.0 14.0 0.00 0.00 0.00 40 1012.8
20260904223025 96 174 7.0 14.0 0.00 0.00 0.00 40 1012.9
20260904222525 96 171 7.0 14.0 0.00 0.00 0.00 42 1012.9
20260904222004 95 161 7.0 14.0 0.00 0.00 0.00 43 1012.9
20260904221504 95 146 6.0 14.0 0.00 0.00 0.00 43 1013.0
20260904221004 94 153 6.0 14.0 0.00 0.00 0.00 45 1012.9
20260904220504 94 171 7.0 14.0 0.00 0.00 0.00 47 1013.0
20260904220004 94 158 6.0 13.0 0.00 0.00 0.00 49 1013.0
20260904215504 94 131 5.0 12.0 0.00 0.00 0.00 52 1013.1
20260904215004 94 140 6.0 12.0 0.00 0.00 0.00 52 1013.0
20260904214525 95 143 6.0 13.0 0.00 0.00 0.00 50 1013.1
20260904214004 95 130 7.0 14.0 0.00 0.00 0.00 51 1013.2
20260904213504 95 132 7.0 14.0 0.00 0.00 0.00 52 1013.3
20260904213004 95 135 7.0 16.0 0.00 0.00 0.00 51 1013.4
20260904212525 94 137 6.0 16.0 0.00 0.00 0.00 53 1013.4
20260904212004 94 134 6.0 14.0 0.00 0.00 0.00 55 1013.4
20260904211504 93 134 7.0 13.0 0.00 0.00 0.00 56 1013.4
20260904211003 93 152 7.0 13.0 0.00 0.00 0.00 56 1013.5
20260904210504 93 150 7.0 13.0 0.00 0.00 0.00 55 1013.6
20260904210004 93 148 7.0 13.0 0.00 0.00 0.00 55 1013.7
20260904205504 93 133 8.0 17.0 0.00 0.00 0.00 55 1013.6
20260904205004 93 128 8.0 17.0 0.00 0.00 0.00 53 1013.7
20260904204525 93 146 7.0 14.0 0.00 0.00 0.00 53 1013.8
20260904204004 94 143 7.0 13.0 0.00 0.00 0.00 51 1013.9
20260904203525 95 126 7.0 13.0 0.00 0.00 0.00 50 1013.9
20260904203004 95 132 7.0 14.0 0.00 0.00 0.00 49 1014.0
20260904202525 95 135 8.0 14.0 0.00 0.00 0.00 50 1013.9
20260904202003 95 125 8.0 16.0 0.00 0.00 0.00 49 1014.0
20260904201504 96 131 7.0 16.0 0.00 0.00 0.00 50 1014.0
20260904201004 96 142 6.0 16.0 0.00 0.00 0.00 49 1014.1
20260904200524 96 139 5.0 14.0 0.00 0.00 0.00 52 1014.1
20260904200004 95 131 5.0 14.0 0.00 0.00 0.00 53 1014.2
20260904195504 94 146 5.0 11.0 0.00 0.00 0.00 56 1014.2
20260904195004 93 168 4.0 10.0 0.00 0.00 0.00 57 1014.1
20260904194504 93 140 5.0 8.0 0.00 0.00 0.00 59 1014.2
20260904194004 92 120 5.0 12.0 0.00 0.00 0.00 59 1014.2
20260904193503 92 133 5.0 12.0 0.00 0.00 0.00 60 1014.3
20260904193004 92 142 5.0 16.0 0.00 0.00 0.00 62 1014.3
20260904192504 92 127 5.0 16.0 0.00 0.00 0.00 61 1014.4
20260904192004 92 134 5.0 12.0 0.00 0.00 0.00 61 1014.4
20260904191524 92 139 6.0 12.0 0.00 0.00 0.00 60 1014.5
20260904191004 92 138 6.0 14.0 0.00 0.00 0.00 60 1014.7
20260904190504 91 127 5.0 14.0 0.00 0.00 0.00 64 1014.8
20260904190024 91 136 5.0 11.0 0.00 0.00 0.00 65 1014.8